FW7705 Weather Reports


Display with metric or nautical units.
time (UTC)temp
F
wind
direction
speed
MPH
gust
MPH
rain 1hr
in
rain 24hr
in
rain mn
in
humidity
%
barometer
mb
20260510191833 59 224 5.0 6.0 0.00 0.09 0.09 44 1013.7
20260510191329 60 265 5.0 7.0 0.00 0.09 0.09 48 1013.7
20260510190827 61 205 3.0 3.0 0.00 0.09 0.09 44 1013.7
20260510190325 60 218 3.0 3.0 0.00 0.09 0.09 49 1013.8
20260510185820 61 342 6.0 8.0 0.00 0.09 0.09 46 1013.5
20260510185319 60 72 1.0 2.0 0.00 0.09 0.09 47 1013.7
20260510184815 61 7 2.0 2.0 0.00 0.09 0.09 49 1013.8
20260510184312 60 21 3.0 3.0 0.00 0.09 0.09 48 1014.0
20260510183813 60 292 4.0 4.0 0.00 0.09 0.09 47 1013.8
20260510183308 62 4 8.0 9.0 0.00 0.09 0.09 44 1013.8
20260510182804 61 280 3.0 4.0 0.00 0.09 0.09 46 1013.7
20260510182301 61 308 5.0 7.0 0.00 0.09 0.09 44 1013.6
20260510181757 60 265 4.0 4.0 0.00 0.09 0.09 50 1013.7
20260510181254 60 359 7.0 8.0 0.00 0.09 0.09 46 1013.8
20260510180750 60 264 7.0 9.0 0.00 0.09 0.09 50 1014.0
20260510180248 59 35 8.0 10.0 0.00 0.09 0.09 47 1013.6
20260510175744 60 297 4.0 6.0 0.00 0.09 0.09 46 1013.8
20260510175240 60 288 6.0 8.0 0.00 0.09 0.09 51 1013.7
20260510174737 59 32 0.0 1.0 0.00 0.09 0.09 54 1013.9
20260510174234 59 323 2.0 2.0 0.00 0.09 0.09 47 1013.8
20260510173730 59 307 6.0 7.0 0.00 0.09 0.09 46 1014.0
20260510173226 58 346 4.0 4.0 0.00 0.09 0.09 46 1013.8
20260510172721 58 325 5.0 6.0 0.00 0.09 0.09 46 1013.8
20260510172218 58 254 6.0 7.0 0.00 0.09 0.09 43 1013.9
20260510171715 58 69 2.0 2.0 0.00 0.09 0.09 50 1014.1
20260510171212 58 339 6.0 7.0 0.00 0.09 0.09 44 1013.9
20260510170709 58 12 4.0 6.0 0.00 0.09 0.09 53 1014.0
20260510170205 58 319 6.0 7.0 0.00 0.09 0.09 45 1014.0
20260510165702 57 284 7.0 8.0 0.00 0.09 0.09 47 1013.9
20260510165157 57 5 4.0 7.0 0.00 0.09 0.09 50 1014.0
20260510164655 57 9 5.0 6.0 0.00 0.09 0.09 51 1014.3
20260510164152 56 351 3.0 4.0 0.00 0.09 0.09 54 1014.0
20260510163647 56 2 9.0 10.0 0.00 0.09 0.09 53 1014.0
20260510163144 56 286 3.0 3.0 0.00 0.09 0.09 51 1014.0
20260510162643 55 289 5.0 7.0 0.00 0.09 0.09 56 1013.9
20260510162140 55 289 2.0 3.0 0.00 0.09 0.09 61 1013.9
20260510161636 55 1 4.0 4.0 0.00 0.09 0.09 61 1014.0
20260510161133 54 23 2.0 3.0 0.00 0.09 0.09 64 1014.0
20260510160630 53 20 3.0 4.0 0.00 0.09 0.09 62 1014.3
20260510160130 53 322 3.0 3.0 0.00 0.09 0.09 61 1014.1
20260510155626 53 284 3.0 3.0 0.00 0.09 0.09 63 1014.3
20260510155122 52 2 5.0 7.0 0.00 0.09 0.09 64 1014.1
20260510154618 52 283 3.0 3.0 0.00 0.09 0.09 65 1014.0
20260510154114 52 310 2.0 3.0 0.00 0.09 0.09 65 1014.1
20260510153609 52 317 5.0 7.0 0.00 0.09 0.09 63 1014.0
20260510153106 52 303 4.0 4.0 0.00 0.09 0.09 66 1014.0
20260510152603 53 358 4.0 6.0 0.00 0.09 0.09 66 1013.9
20260510152059 53 12 5.0 6.0 0.00 0.09 0.09 66 1013.7
20260510151555 52 7 4.0 6.0 0.00 0.09 0.09 71 1013.8
20260510151054 52 9 3.0 3.0 0.00 0.09 0.09 69 1013.6
20260510150553 52 334 1.0 2.0 0.00 0.09 0.09 74 1013.6
20260510150050 52 345 3.0 3.0 0.00 0.09 0.09 74 1013.7
20260510145546 52 300 4.0 4.0 0.00 0.09 0.09 74 1013.7
20260510145043 52 22 2.0 3.0 0.00 0.09 0.09 78 1013.5
20260510144540 51 7 6.0 7.0 0.00 0.09 0.09 79 1013.5
20260510144036 51 353 4.0 4.0 0.00 0.09 0.09 79 1013.4
20260510143531 51 313 3.0 3.0 0.00 0.09 0.09 79 1013.5
20260510143028 51 342 2.0 3.0 0.00 0.09 0.09 77 1013.3
20260510142525 51 355 1.0 2.0 0.00 0.09 0.09 81 1013.5
20260510142021 51 306 4.0 4.0 0.00 0.09 0.09 77 1013.4
20260510141518 51 63 4.0 4.0 0.00 0.09 0.09 81 1013.3
20260510141015 50 22 3.0 4.0 0.00 0.09 0.09 81 1013.0
20260510140512 50 33 3.0 4.0 0.00 0.09 0.09 84 1013.0
20260510140012 50 10 3.0 4.0 0.00 0.09 0.09 81 1012.9
20260510135507 50 41 3.0 3.0 0.00 0.09 0.09 85 1012.8
20260510135004 50 13 4.0 6.0 0.00 0.09 0.09 83 1012.8
20260510134501 50 31 5.0 6.0 0.00 0.09 0.09 84 1012.6
20260510133958 49 4 6.0 8.0 0.00 0.09 0.09 83 1012.6
20260510133453 49 334 4.0 4.0 0.00 0.09 0.09 84 1012.6
20260510132949 49 21 4.0 6.0 0.00 0.09 0.09 85 1012.6
20260510132447 49 5 5.0 6.0 0.00 0.09 0.09 84 1012.6
20260510131944 49 13 7.0 9.0 0.00 0.09 0.09 83 1012.5
20260510131441 49 18 4.0 6.0 0.00 0.09 0.09 86 1012.5
20260510130938 49 8 4.0 4.0 0.00 0.09 0.09 87 1012.7
20260510130435 49 14 3.0 4.0 0.00 0.09 0.09 85 1012.9
20260510125932 49 29 2.0 3.0 0.00 0.09 0.09 87 1012.3
20260510125428 48 344 4.0 4.0 0.00 0.09 0.09 85 1012.4
20260510124925 48 18 4.0 4.0 0.00 0.09 0.09 91 1012.8
20260510124421 49 357 6.0 8.0 0.00 0.09 0.09 96 1012.6
20260510123918 49 296 9.0 11.0 0.00 0.09 0.09 99 1012.5
20260510123413 50 307 6.0 8.0 0.00 0.09 0.09 99 1012.2
20260510122910 50 174 1.0 1.0 0.00 0.09 0.09 99 1012.0
20260510122410 50 188 0.0 1.0 0.00 0.09 0.09 99 1012.0
20260510121907 49 188 1.0 2.0 0.00 0.09 0.09 99 1011.8
20260510121405 49 162 1.0 1.0 0.00 0.09 0.09 99 1011.8
20260510120902 49 181 3.0 3.0 0.00 0.09 0.09 99 1011.5
20260510120359 49 183 1.0 1.0 0.00 0.09 0.09 99 1011.8
20260510115855 49 159 0.0 0.0 0.00 0.09 0.09 99 1011.6
20260510115352 49 170 2.0 2.0 0.00 0.09 0.09 99 1011.4
20260510114848 49 170 1.0 1.0 0.00 0.09 0.09 99 1011.4
20260510114345 49 152 0.0 1.0 0.00 0.09 0.09 99 1011.2
20260510113845 49 150 0.0 0.0 0.00 0.09 0.09 99 1011.0
20260510113342 48 150 0.0 0.0 0.00 0.09 0.09 99 1011.0
20260510112838 48 151 0.0 0.0 0.00 0.09 0.09 99 1011.0
20260510112336 49 157 1.0 1.0 0.00 0.09 0.09 99 1011.2
20260510111832 48 141 0.0 0.0 0.00 0.09 0.09 99 1010.7
20260510111328 48 141 0.0 0.0 0.00 0.09 0.09 99 1010.6
20260510110828 47 141 0.0 0.0 0.00 0.09 0.09 99 1010.5
20260510110326 47 141 0.0 0.0 0.00 0.09 0.09 99 1010.6
20260510105821 47 141 0.0 0.0 0.00 0.09 0.09 99 1010.4
20260510105316 46 141 0.0 0.0 0.00 0.09 0.09 99 1010.1
20260510104813 46 141 0.0 0.0 0.00 0.09 0.09 99 1010.2
20260510104310 47 141 0.0 0.0 0.00 0.09 0.09 99 1010.3
20260510103806 47 141 0.0 0.0 0.00 0.09 0.09 99 1010.2
20260510103303 47 139 0.0 0.0 0.00 0.09 0.09 99 1010.0
20260510102804 46 138 0.0 0.0 0.00 0.09 0.09 99 1009.8
20260510102300 46 138 0.0 0.0 0.00 0.09 0.09 99 1009.9
20260510101757 46 138 0.0 0.0 0.00 0.09 0.09 99 1009.8
20260510101255 46 136 0.0 0.0 0.00 0.09 0.09 99 1009.7
20260510100751 46 136 0.0 0.0 0.00 0.09 0.09 99 1009.6
20260510100249 45 129 0.0 0.0 0.00 0.09 0.09 99 1009.6
20260510095744 46 129 0.0 0.0 0.00 0.09 0.09 99 1009.4
20260510095239 46 129 0.0 0.0 0.00 0.09 0.09 99 1009.5
20260510094738 46 129 0.0 1.0 0.00 0.09 0.09 99 1009.6
20260510094234 47 129 0.0 0.0 0.00 0.09 0.09 99 1009.3
20260510093730 47 128 0.0 0.0 0.00 0.09 0.09 99 1009.1
20260510093228 47 128 0.0 0.0 0.00 0.09 0.09 99 1009.4
20260510092723 47 128 0.0 0.0 0.00 0.09 0.09 99 1009.6
20260510092219 46 128 0.0 0.0 0.00 0.09 0.09 99 1009.6
20260510091715 46 128 0.0 0.0 0.00 0.09 0.09 99 1009.4
20260510091212 46 128 0.0 0.0 0.00 0.09 0.09 99 1009.1
20260510090709 47 128 0.0 0.0 0.00 0.09 0.09 99 1009.1
20260510090206 47 128 0.0 0.0 0.00 0.09 0.09 99 1008.9
20260510085701 47 128 0.0 0.0 0.00 0.09 0.09 99 1009.3
20260510085156 46 128 0.0 0.0 0.00 0.09 0.09 99 1009.1
20260510084652 46 128 0.0 0.0 0.00 0.09 0.09 99 1009.1
20260510084149 47 128 0.0 0.0 0.00 0.09 0.09 99 1009.0
20260510083646 47 128 0.0 0.0 0.00 0.09 0.09 99 1009.1
20260510083143 46 128 0.0 0.0 0.00 0.09 0.09 99 1009.0
20260510082639 46 128 0.0 0.0 0.00 0.09 0.09 99 1009.3
20260510082134 45 128 0.0 0.0 0.00 0.09 0.09 99 1009.1
20260510081629 45 128 0.0 0.0 0.00 0.09 0.09 99 1008.9
20260510081126 46 128 0.0 0.0 0.00 0.09 0.09 99 1008.8
20260510080625 45 128 0.0 0.0 0.00 0.09 0.09 99 1008.7
20260510080122 45 128 0.0 0.0 0.00 0.09 0.09 99 1008.5
20260510075619 45 128 0.0 0.0 0.00 0.09 0.09 99 1008.6
20260510075116 45 128 0.0 0.0 0.00 0.09 0.09 99 1008.7
20260510074613 45 128 0.0 0.0 0.00 0.09 0.09 99 1008.6
20260510074109 45 128 0.0 0.0 0.00 0.09 0.09 99 1008.8
20260510073605 45 128 0.0 0.0 0.00 0.09 0.09 99 1008.7
20260510073103 46 128 0.0 0.0 0.00 0.09 0.09 99 1008.7
20260510072559 45 128 0.0 0.0 0.00 0.09 0.09 99 1008.7
20260510072054 45 128 0.0 0.0 0.00 0.09 0.09 99 1008.5
20260510071551 45 128 0.0 0.0 0.00 0.09 0.09 99 1008.7
20260510071049 45 128 0.0 0.0 0.00 0.09 0.09 99 1008.4
20260510070545 46 128 0.0 0.0 0.00 0.09 0.09 99 1008.5
20260510070043 46 128 0.0 0.0 0.00 0.09 0.09 99 1008.3
20260510065539 46 128 0.0 0.0 0.00 0.09 0.09 99 1008.3
20260510065035 46 128 0.0 0.0 0.00 0.09 0.09 99 1008.3
20260510064531 46 128 0.0 0.0 0.00 0.09 0.09 99 1008.3
20260510064028 46 128 0.0 0.0 0.00 0.09 0.09 98 1008.5
20260510063525 47 128 0.0 0.0 0.00 0.09 0.09 98 1008.2
20260510063022 47 122 0.0 0.0 0.00 0.09 0.09 99 1008.5
20260510062518 48 159 0.0 0.0 0.00 0.09 0.09 99 1008.4
20260510062013 48 144 0.0 0.0 0.00 0.09 0.09 99 1008.4
20260510061510 48 133 0.0 0.0 0.00 0.09 0.09 98 1008.6
20260510061007 48 145 1.0 1.0 0.00 0.09 0.09 98 1008.8
20260510060504 48 144 0.0 0.0 0.00 0.09 0.09 98 1008.5
20260510055959 48 144 0.0 0.0 0.00 0.09 0.09 98 1008.5
20260510055455 48 164 0.0 1.0 0.00 0.09 0.09 98 1008.6
20260510054954 48 137 2.0 2.0 0.00 0.09 0.09 98 1008.8
20260510054449 48 137 2.0 2.0 0.00 0.09 0.09 98 1008.8
20260510053944 48 183 1.0 1.0 0.00 0.09 0.09 97 1009.0
20260510053440 49 183 0.0 0.0 0.00 0.09 0.09 97 1008.9
20260510052936 49 147 1.0 1.0 0.00 0.09 0.09 97 1009.0
20260510052432 49 159 2.0 3.0 0.00 0.09 0.09 97 1008.9
20260510051928 49 142 1.0 1.0 0.00 0.09 0.09 97 1008.8
20260510051425 49 136 2.0 2.0 0.00 0.09 0.09 97 1008.8
20260510050921 49 146 3.0 4.0 0.00 0.09 0.09 97 1008.9
20260510050418 49 121 1.0 1.0 0.00 0.09 0.09 98 1009.4
20260510045915 49 167 2.0 3.0 0.00 0.09 0.09 98 1009.5
20260510045413 49 160 1.0 2.0 0.07 0.09 0.09 97 1009.6
20260510044909 49 121 1.0 1.0 0.07 0.09 0.09 97 1009.7
20260510044406 49 139 1.0 2.0 0.05 0.08 0.08 97 1009.5
20260510043903 49 150 2.0 3.0 0.12 0.08 0.08 97 1009.3
20260510043358 49 126 2.0 3.0 0.19 0.07 0.07 96 1009.8
20260510042857 50 201 1.0 1.0 0.19 0.06 0.06 95 1010.0
20260510042352 50 154 2.0 3.0 0.19 0.04 0.04 94 1010.0
20260510041849 50 201 2.0 3.0 0.12 0.03 0.03 93 1010.1
20260510041346 50 200 2.0 3.0 0.05 0.01 0.01 93 1010.2
20260510040843 50 270 2.0 2.0 0.05 0.01 0.01 93 1010.0
20260510040340 51 178 2.0 2.0 0.00 0.00 0.00 92 1009.8
20260510035835 51 285 4.0 6.0 0.07 0.33 0.33 92 1009.8
20260510035332 51 334 4.0 6.0 0.07 0.33 0.33 93 1009.7
20260510034827 51 265 1.0 2.0 0.00 0.32 0.32 94 1009.5
20260510034326 51 294 2.0 3.0 0.00 0.32 0.32 95 1009.7
20260510033821 50 291 2.0 3.0 0.00 0.32 0.32 96 1009.8
20260510033319 50 247 5.0 6.0 0.00 0.32 0.32 97 1009.6
20260510032815 50 281 1.0 1.0 0.00 0.32 0.32 95 1008.6
20260510032312 50 225 0.0 1.0 0.00 0.32 0.32 96 1008.3
20260510031807 50 164 0.0 0.0 0.00 0.32 0.32 96 1008.3
20260510031304 50 164 0.0 0.0 0.00 0.32 0.32 97 1008.3
20260510030803 50 164 1.0 1.0 0.00 0.32 0.32 97 1008.3
20260510030300 50 186 0.0 0.0 0.00 0.32 0.32 96 1008.7
20260510025757 50 187 1.0 2.0 0.00 0.32 0.32 96 1008.6
20260510025255 50 164 0.0 0.0 0.00 0.32 0.32 97 1008.3
20260510024751 50 129 0.0 0.0 0.00 0.32 0.32 97 1008.3
20260510024248 50 132 0.0 0.0 0.00 0.32 0.32 97 1008.2
20260510023744 49 148 1.0 1.0 0.00 0.32 0.32 97 1008.1
20260510023241 49 148 0.0 0.0 0.00 0.32 0.32 96 1008.1
20260510022737 50 149 0.0 1.0 0.00 0.32 0.32 96 1008.2
20260510022237 50 141 2.0 3.0 0.00 0.32 0.32 96 1007.8
20260510021732 50 140 1.0 1.0 0.00 0.32 0.32 96 1007.7
20260510021230 50 165 0.0 0.0 0.00 0.32 0.32 96 1007.9
20260510020730 50 149 0.0 1.0 0.00 0.32 0.32 97 1007.8
20260510020225 50 176 0.0 0.0 0.00 0.32 0.32 96 1007.7
20260510015721 50 132 2.0 3.0 0.00 0.32 0.32 97 1007.8
20260510015218 50 163 0.0 0.0 0.00 0.32 0.32 96 1007.9
20260510014713 50 141 1.0 1.0 0.00 0.32 0.32 96 1007.7
20260510014211 50 123 0.0 1.0 0.00 0.32 0.32 96 1007.5
20260510013712 50 190 2.0 2.0 0.00 0.32 0.32 97 1007.6
20260510013208 50 254 1.0 2.0 0.00 0.32 0.32 97 1007.6
20260510012708 50 124 0.0 0.0 0.00 0.32 0.32 97 1007.7
20260510012203 50 171 0.0 0.0 0.00 0.32 0.32 98 1007.5
20260510011658 50 135 0.0 1.0 0.00 0.32 0.32 98 1007.7
20260510011154 49 185 1.0 1.0 0.00 0.32 0.32 97 1007.5
20260510010650 49 206 2.0 3.0 0.00 0.32 0.32 97 1007.4
20260510010148 50 149 1.0 1.0 0.00 0.32 0.32 97 1007.2
20260510005643 50 147 0.0 0.0 0.00 0.32 0.32 97 1007.3
20260510005140 50 145 1.0 1.0 0.00 0.32 0.32 97 1006.9
20260510004639 50 138 0.0 0.0 0.00 0.32 0.32 97 1007.2
20260510004137 50 138 1.0 1.0 0.00 0.32 0.32 96 1007.0
20260510003633 50 135 2.0 2.0 0.00 0.32 0.32 96 1006.9
20260510003129 51 159 0.0 0.0 0.00 0.32 0.32 96 1007.0
20260510002629 51 135 0.0 0.0 0.00 0.32 0.32 96 1006.9
20260510002126 51 135 1.0 1.0 0.00 0.32 0.32 97 1007.0
20260510001623 50 128 0.0 0.0 0.00 0.32 0.32 97 1007.1
20260510001122 50 131 0.0 0.0 0.00 0.32 0.32 96 1007.0
20260510000622 50 131 1.0 1.0 0.00 0.32 0.32 96 1007.0
20260510000120 51 136 1.0 1.0 0.00 0.32 0.32 95 1007.0
20260509235615 51 152 1.0 1.0 0.00 0.32 0.32 94 1006.9
20260509235112 51 153 0.0 0.0 0.00 0.32 0.32 94 1006.8
20260509234608 51 135 0.0 0.0 0.00 0.32 0.32 94 1006.7
20260509234106 52 135 1.0 1.0 0.00 0.32 0.32 93 1006.7
20260509233603 52 170 1.0 1.0 0.00 0.32 0.32 92 1006.9
20260509233101 52 183 0.0 0.0 0.00 0.32 0.32 92 1006.7
20260509232557 53 137 1.0 1.0 0.00 0.32 0.32 92 1006.5
20260509232054 53 140 0.0 0.0 0.00 0.32 0.32 91 1006.8
20260509231550 54 188 2.0 2.0 0.00 0.32 0.32 90 1006.3
20260509231048 54 134 1.0 2.0 0.00 0.32 0.32 91 1006.5
20260509230544 53 128 2.0 2.0 0.00 0.32 0.32 91 1006.3
20260509230042 53 195 2.0 2.0 0.00 0.32 0.32 91 1006.8
20260509225537 53 170 0.0 0.0 0.00 0.32 0.32 91 1006.7
20260509225033 53 197 1.0 1.0 0.00 0.32 0.32 91 1006.8
20260509224529 53 190 1.0 1.0 0.00 0.32 0.32 91 1006.8
20260509224026 53 203 1.0 1.0 0.00 0.32 0.32 91 1006.7
20260509223522 53 155 2.0 2.0 0.00 0.32 0.32 91 1006.9
20260509223021 53 187 1.0 2.0 0.00 0.32 0.32 91 1006.9
20260509222516 54 205 1.0 1.0 0.00 0.32 0.32 90 1006.9
20260509222012 54 179 2.0 2.0 0.00 0.32 0.32 90 1006.7
20260509221508 54 145 2.0 3.0 0.00 0.32 0.32 92 1006.9
20260509221004 53 145 0.0 1.0 0.00 0.32 0.32 92 1006.9
20260509220500 53 189 0.0 0.0 0.00 0.32 0.32 92 1006.8
20260509215956 53 142 3.0 3.0 0.00 0.32 0.32 91 1006.8
20260509215452 53 238 2.0 2.0 0.00 0.32 0.32 92 1006.7
20260509214950 53 136 2.0 2.0 0.00 0.32 0.32 92 1006.5
20260509214447 53 138 2.0 2.0 0.00 0.32 0.32 92 1006.8
20260509213943 53 181 1.0 1.0 0.00 0.32 0.32 93 1006.8
20260509213439 53 153 2.0 4.0 0.00 0.32 0.32 92 1006.9
20260509212937 53 182 1.0 1.0 0.00 0.32 0.32 92 1006.9
20260509212434 53 201 1.0 1.0 0.00 0.32 0.32 93 1007.1
20260509211930 53 203 0.0 1.0 0.00 0.32 0.32 93 1007.0
20260509211426 53 163 1.0 2.0 0.00 0.32 0.32 93 1007.0
20260509210922 53 266 5.0 8.0 0.00 0.32 0.32 93 1006.9
20260509210420 53 129 2.0 4.0 0.00 0.32 0.32 93 1006.9
20260509205915 53 135 2.0 3.0 0.00 0.32 0.32 93 1007.2
20260509205415 53 141 2.0 2.0 0.00 0.32 0.32 94 1007.3
20260509204911 52 236 2.0 3.0 0.00 0.32 0.32 94 1007.3
20260509204408 53 209 0.0 1.0 0.00 0.32 0.32 93 1007.3
20260509203904 52 261 4.0 6.0 0.00 0.32 0.32 94 1007.1
20260509203400 52 183 1.0 2.0 0.00 0.32 0.32 94 1007.5
20260509202858 52 143 0.0 0.0 0.00 0.32 0.32 94 1007.4
20260509202353 52 195 3.0 4.0 0.00 0.32 0.32 94 1007.7
20260509201849 52 169 2.0 2.0 0.00 0.32 0.32 93 1007.5
20260509201344 52 155 4.0 6.0 0.00 0.32 0.32 93 1007.5
20260509200841 52 187 0.0 0.0 0.00 0.32 0.32 94 1007.5
20260509200336 52 160 2.0 3.0 0.00 0.32 0.32 94 1007.8
20260509195833 52 149 1.0 1.0 0.00 0.32 0.32 94 1007.8
20260509195333 51 176 3.0 3.0 0.00 0.32 0.32 94 1007.7
20260509194833 51 167 1.0 2.0 0.00 0.32 0.32 94 1007.9
20260509194329 51 173 1.0 1.0 0.00 0.32 0.32 94 1007.9
20260509193827 51 174 2.0 4.0 0.00 0.32 0.32 94 1007.9
20260509193326 51 124 1.0 2.0 0.00 0.32 0.32 94 1008.1
20260509192823 51 110 2.0 2.0 0.00 0.32 0.32 94 1008.1
20260509192319 51 138 1.0 1.0 0.00 0.32 0.32 94 1008.0